Погода в Кордяге

Россия / Кировская область     58°25′42″N   51°01′42″E
темп.,
°C
ветер,
м/с
пор.,
м/с
влажн.,
%
обл.,
%
осадки,
мм/ч
давл.,
гПа
погр.,
м
15 мая, сб
сб1500:00+16ююз3881100 0.0 1017160
03:00+15зюз249252 0.0 101892
06:00+18юз247836 0.0 1018241
09:00+24ююз4651100 0.0 10181043
12:00+25ю4751100 0.1 10171256
15:00+27ююз61144100 0.1 10151583
18:00+24юз613454 0.0 10141071
21:00+18ююз312702 0.0 1015284
16 мая, вс
вс1600:00+16ююз310780 0.0 1015193
03:00+15ююз37815 0.0 1016125
06:00+18ю387079 0.0 1016245
09:00+23ююз594992 0.0 1015689
12:00+26юз61040100 0.0 10151434
15:00+26юз6114476 0.0 10142058
18:00+24ююз51058100 0.0 1014576
21:00+18юз268199 1.4 1014110
17 мая, пн
пн1700:00+16зюз129298 2.1 101526
03:00+14юз2592100 3.3 1016106
06:00+17зюз36790 0.2 1017267
09:00+22зюз465476 0.2 10171084
12:00+24зюз4743100 0.0 10171878
15:00+25зюз573947 0.0 10172077
18:00+22зсз2453100 0.0 1017124
21:00+17з226588 0.0 101712
18 мая, вт
вт1800:00+16зюз1168100 0.0 101811
03:00+15юз117580 0.1 101810
06:00+19ююв136632 0.0 1018148
09:00+24ююз235493 0.1 1018727
12:00+27юз34475 0.0 10171490
15:00+28юз353213 0.0 10162595
18:00+26ююз114580 0.0 101615
21:00+19ююв225543 0.0 101712
19 мая, ср
ср1900:00+19юв225591 0.0 101725
03:00+17ююв22641 0.0 101826
06:00+20юв38588 0.0 1018218
09:00+25ю474659 0.0 1017581
12:00+28ю5837100 0.0 10171569
15:00+29ююв5733100 0.0 10162410
18:00+25юв49495 0.0 1014352
21:00+20ююв41266100 0.0 1014250